Time,TemperatureF,DewpointF,PressureIn,WindDirection,WindDirectionDegrees,WindSpeedMPH,WindSpeedGustMPH,Humidity,HourlyPrecipIn,Conditions,Clouds,dailyrainin,SoftwareType,DateUTC
2013-01-05 00:14:00,35.6,21.5,30.28,NNW,337,3.8,3.8,56,0.00,,,0.00,WUHU21523XXSP,2013-01-05 05:14:00,
2013-01-05 00:19:00,35.4,21.7,30.28,West,270,4.3,4.3,57,0.00,,,0.00,WUHU21523XXSP,2013-01-05 05:19:00,
2013-01-05 00:24:00,35.4,22.1,30.27,NW,315,4.3,4.9,58,0.00,,,0.00,WUHU21523XXSP,2013-01-05 05:24:00,
2013-01-05 00:29:00,35.2,22.0,30.28,NW,315,4.9,4.9,58,0.00,,,0.00,WUHU21523XXSP,2013-01-05 05:29:00,
2013-01-05 00:34:00,35.2,22.0,30.27,NNW,337,4.5,4.9,58,0.00,,,0.00,WUHU21523XXSP,2013-01-05 05:34:00,
2013-01-05 00:39:00,35.2,22.0,30.28,NW,315,6.7,6.7,58,0.00,,,0.00,WUHU21523XXSP,2013-01-05 05:39:00,
2013-01-05 00:44:00,35.2,22.0,30.28,SSW,202,3.1,6.7,58,0.00,,,0.00,WUHU21523XXSP,2013-01-05 05:44:00,
2013-01-05 00:49:00,35.1,21.8,30.28,SSW,202,0.0,6.7,58,0.00,,,0.00,WUHU21523XXSP,2013-01-05 05:49:00,
2013-01-05 00:54:00,34.9,22.0,30.28,West,266,2.4,7.2,59,0.00,,,0.00,WUHU21523XXSP,2013-01-05 05:54:00,
2013-01-05 00:59:00,34.9,22.0,30.28,NW,322,2.0,7.2,59,0.00,,,0.00,WUHU21523XXSP,2013-01-05 05:59:00,
2013-01-05 01:08:00,34.9,22.0,30.27,NW,315,2.7,2.7,59,0.00,,,0.00,WUHU21523XXSP,2013-01-05 06:08:00,
2013-01-05 01:13:00,34.9,22.0,30.27,NW,315,5.7,5.8,59,0.00,,,0.00,WUHU21523XXSP,2013-01-05 06:13:00,
2013-01-05 01:18:00,34.9,22.0,30.27,North,1,4.7,7.4,59,0.00,,,0.00,WUHU21523XXSP,2013-01-05 06:18:00,
2013-01-05 01:23:00,34.9,22.0,30.27,NNW,329,3.7,7.4,59,0.00,,,0.00,WUHU21523XXSP,2013-01-05 06:23:00,
2013-01-05 01:28:00,34.9,22.0,30.28,NW,315,5.2,6.5,59,0.00,,,0.00,WUHU21523XXSP,2013-01-05 06:28:00,
2013-01-05 01:33:00,34.7,21.8,30.28,NNW,327,4.5,6.5,59,0.00,,,0.00,WUHU21523XXSP,2013-01-05 06:33:00,
2013-01-05 01:38:00,34.9,22.0,30.28,NW,315,3.5,4.9,59,0.00,,,0.00,WUHU21523XXSP,2013-01-05 06:38:00,
2013-01-05 01:43:00,34.7,21.8,30.28,NW,315,3.8,3.8,59,0.00,,,0.00,WUHU21523XXSP,2013-01-05 06:43:00,
2013-01-05 01:48:00,34.9,22.0,30.28,NW,315,2.5,3.8,59,0.00,,,0.00,WUHU21523XXSP,2013-01-05 06:48:00,
2013-01-05 01:53:00,34.9,22.0,30.28,West,270,5.8,5.8,59,0.00,,,0.00,WUHU21523XXSP,2013-01-05 06:53:00,
2013-01-05 01:58:00,34.9,22.0,30.28,NNW,330,2.6,5.8,59,0.00,,,0.00,WUHU21523XXSP,2013-01-05 06:58:00,
2013-01-05 02:03:00,34.9,22.0,30.29,West,270,3.4,3.6,59,0.00,,,0.00,WUHU21523XXSP,2013-01-05 07:03:00,
2013-01-05 02:08:00,34.9,22.0,30.29,NW,315,3.1,3.4,59,0.00,,,0.00,WUHU21523XXSP,2013-01-05 07:08:00,
2013-01-05 02:13:00,34.7,21.8,30.29,NW,315,2.9,3.1,59,0.00,,,0.00,WUHU21523XXSP,2013-01-05 07:13:00,
2013-01-05 02:18:00,34.7,21.8,30.30,NW,315,2.5,3.1,59,0.00,,,0.00,WUHU21523XXSP,2013-01-05 07:18:00,
2013-01-05 02:23:00,34.7,21.8,30.30,NW,315,2.0,3.1,59,0.00,,,0.00,WUHU21523XXSP,2013-01-05 07:23:00,
2013-01-05 02:28:00,34.9,22.0,30.30,NW,311,1.9,3.1,59,0.00,,,0.00,WUHU21523XXSP,2013-01-05 07:28:00,
2013-01-05 02:38:00,34.9,22.0,30.30,NW,315,3.6,4.0,59,0.00,,,0.00,WUHU21523XXSP,2013-01-05 07:38:00,
2013-01-05 02:43:00,34.9,22.0,30.29,NNW,329,5.9,7.6,59,0.00,,,0.00,WUHU21523XXSP,2013-01-05 07:43:00,
2013-01-05 02:48:00,34.7,21.8,30.29,West,270,5.1,7.6,59,0.00,,,0.00,WUHU21523XXSP,2013-01-05 07:48:00,
2013-01-05 02:53:00,34.7,21.8,30.29,NW,315,0.2,7.6,59,0.00,,,0.00,WUHU21523XXSP,2013-01-05 07:53:00,
2013-01-05 02:58:00,34.7,21.8,30.30,WNW,284,3.7,6.9,59,0.00,,,0.00,WUHU21523XXSP,2013-01-05 07:58:00,
2013-01-05 03:03:00,34.5,22.1,30.30,NNW,331,1.5,6.9,60,0.00,,,0.00,WUHU21523XXSP,2013-01-05 08:03:00,
2013-01-05 03:08:00,34.5,22.1,30.30,NNW,337,0.0,2.5,60,0.00,,,0.00,WUHU21523XXSP,2013-01-05 08:08:00,
2013-01-05 03:13:00,34.3,21.9,30.30,NNW,337,2.7,4.5,60,0.00,,,0.00,WUHU21523XXSP,2013-01-05 08:13:00,
2013-01-05 03:18:00,34.3,21.9,30.31,NNE,25,2.7,4.5,60,0.00,,,0.00,WUHU21523XXSP,2013-01-05 08:18:00,
2013-01-05 03:23:00,34.3,21.9,30.30,NNW,337,2.8,4.3,60,0.00,,,0.00,WUHU21523XXSP,2013-01-05 08:23:00,
2013-01-05 03:28:00,34.2,21.7,30.30,NNW,337,2.7,3.8,60,0.00,,,0.00,WUHU21523XXSP,2013-01-05 08:28:00,
2013-01-05 03:33:00,34.0,21.6,30.30,NW,322,2.6,3.6,60,0.00,,,0.00,WUHU21523XXSP,2013-01-05 08:33:00,
2013-01-05 03:38:00,34.0,21.6,30.31,NNW,348,3.1,4.7,60,0.00,,,0.00,WUHU21523XXSP,2013-01-05 08:38:00,
2013-01-05 03:43:00,34.0,21.6,30.31,NW,315,2.5,4.7,60,0.00,,,0.00,WUHU21523XXSP,2013-01-05 08:43:00,
2013-01-05 03:48:00,34.0,21.6,30.31,NW,315,2.2,2.7,60,0.00,,,0.00,WUHU21523XXSP,2013-01-05 08:48:00,
2013-01-05 03:53:00,34.0,21.6,30.31,NW,315,2.9,2.9,60,0.00,,,0.00,WUHU21523XXSP,2013-01-05 08:53:00,
2013-01-05 03:58:00,34.0,21.6,30.31,NW,315,2.2,2.9,60,0.00,,,0.00,WUHU21523XXSP,2013-01-05 08:58:00,
2013-01-05 04:03:00,34.0,21.6,30.32,NW,315,4.3,4.3,60,0.00,,,0.00,WUHU21523XXSP,2013-01-05 09:03:00,
2013-01-05 04:08:00,34.2,21.6,30.32,NW,315,2.0,4.3,60,0.00,,,0.00,WUHU21523XXSP,2013-01-05 09:08:00,
2013-01-05 04:13:00,34.2,21.7,30.32,WNW,292,1.1,2.0,60,0.00,,,0.00,WUHU21523XXSP,2013-01-05 09:13:00,
2013-01-05 04:18:00,34.2,21.7,30.33,NW,315,1.8,1.8,60,0.00,,,0.00,WUHU21523XXSP,2013-01-05 09:18:00,
2013-01-05 04:23:00,34.0,21.6,30.33,West,270,5.6,5.6,60,0.00,,,0.00,WUHU21523XXSP,2013-01-05 09:23:00,
2013-01-05 04:28:00,34.0,21.6,30.33,NW,315,1.6,5.6,60,0.00,,,0.00,WUHU21523XXSP,2013-01-05 09:28:00,
2013-01-05 04:33:00,34.0,21.6,30.33,NNW,337,2.5,2.5,60,0.00,,,0.00,WUHU21523XXSP,2013-01-05 09:33:00,
2013-01-05 04:38:00,34.2,21.7,30.33,NNW,337,2.0,2.5,60,0.00,,,0.00,WUHU21523XXSP,2013-01-05 09:38:00,
2013-01-05 04:43:00,34.2,21.7,30.32,NW,315,2.5,2.5,60,0.00,,,0.00,WUHU21523XXSP,2013-01-05 09:43:00,
2013-01-05 04:48:00,34.2,21.7,30.32,NW,315,2.2,2.5,60,0.00,,,0.00,WUHU21523XXSP,2013-01-05 09:48:00,
2013-01-05 04:53:00,34.2,21.7,30.32,NNW,337,0.0,2.2,60,0.00,,,0.00,WUHU21523XXSP,2013-01-05 09:53:00,
2013-01-05 04:58:00,34.0,21.6,30.31,NNW,337,0.0,0.0,60,0.00,,,0.00,WUHU21523XXSP,2013-01-05 09:58:00,
2013-01-05 05:03:00,34.0,21.6,30.32,NW,315,0.0,0.0,60,0.00,,,0.00,WUHU21523XXSP,2013-01-05 10:03:00,
2013-01-05 05:08:00,33.8,21.7,30.31,NNW,337,0.0,0.0,61,0.00,,,0.00,WUHU21523XXSP,2013-01-05 10:08:00,
2013-01-05 05:13:00,33.6,21.6,30.32,NW,315,1.8,1.8,61,0.00,,,0.00,WUHU21523XXSP,2013-01-05 10:13:00,
2013-01-05 05:18:00,33.6,21.6,30.32,NW,315,0.7,1.8,61,0.00,,,0.00,WUHU21523XXSP,2013-01-05 10:18:00,
2013-01-05 05:23:00,33.6,21.6,30.32,NNW,337,0.0,1.8,61,0.00,,,0.00,WUHU21523XXSP,2013-01-05 10:23:00,
2013-01-05 05:28:00,33.4,21.4,30.32,NW,315,0.0,1.1,61,0.00,,,0.00,WUHU21523XXSP,2013-01-05 10:28:00,
2013-01-05 05:33:00,33.4,21.4,30.32,NW,315,0.0,0.0,61,0.00,,,0.00,WUHU21523XXSP,2013-01-05 10:33:00,
2013-01-05 05:38:00,33.4,21.4,30.32,NW,315,0.0,0.0,61,0.00,,,0.00,WUHU21523XXSP,2013-01-05 10:38:00,
2013-01-05 05:43:00,33.3,21.1,30.32,NW,315,0.0,0.0,61,0.00,,,0.00,WUHU21523XXSP,2013-01-05 10:43:00,
2013-01-05 05:53:00,32.9,21.3,30.32,North,0,0.0,0.0,62,0.00,,,0.00,WUHU21523XXSP,2013-01-05 10:53:00,
2013-01-05 05:58:00,32.7,21.1,30.32,NW,315,3.5,4.0,62,0.00,,,0.00,WUHU21523XXSP,2013-01-05 10:58:00,
2013-01-05 06:03:00,32.7,21.1,30.33,NNW,330,2.3,4.0,62,0.00,,,0.00,WUHU21523XXSP,2013-01-05 11:03:00,
2013-01-05 06:13:00,32.9,21.3,30.33,NNW,337,4.9,6.0,62,0.00,,,0.00,WUHU21523XXSP,2013-01-05 11:13:00,
2013-01-05 06:18:00,32.9,21.6,30.33,NW,315,2.9,6.0,63,0.00,,,0.00,WUHU21523XXSP,2013-01-05 11:18:00,
2013-01-05 06:23:00,33.1,21.5,30.33,West,270,0.0,6.0,63,0.00,,,0.00,WUHU21523XXSP,2013-01-05 11:23:00,
2013-01-05 06:28:00,33.1,21.8,30.33,NNW,337,0.0,0.9,63,0.00,,,0.00,WUHU21523XXSP,2013-01-05 11:28:00,
2013-01-05 06:33:00,33.1,21.8,30.33,West,270,0.0,0.9,63,0.00,,,0.00,WUHU21523XXSP,2013-01-05 11:33:00,
2013-01-05 06:38:00,33.1,21.8,30.34,West,270,0.0,0.0,63,0.00,,,0.00,WUHU21523XXSP,2013-01-05 11:38:00,
2013-01-05 06:43:00,33.1,21.8,30.34,NW,315,0.0,0.0,63,0.00,,,0.00,WUHU21523XXSP,2013-01-05 11:43:00,
2013-01-05 06:48:00,33.1,21.8,30.35,West,270,0.0,0.0,63,0.00,,,0.00,WUHU21523XXSP,2013-01-05 11:48:00,
2013-01-05 06:53:00,33.1,21.8,30.34,NNW,337,0.0,0.0,63,0.00,,,0.00,WUHU21523XXSP,2013-01-05 11:53:00,
2013-01-05 06:58:00,32.9,21.6,30.35,NNW,337,0.0,0.0,63,0.00,,,0.00,WUHU21523XXSP,2013-01-05 11:58:00,
2013-01-05 07:03:00,32.9,21.6,30.34,North,0,0.0,0.0,63,0.00,,,0.00,WUHU21523XXSP,2013-01-05 12:03:00,
2013-01-05 07:08:00,32.9,21.6,30.34,NE,45,0.0,0.0,63,0.00,,,0.00,WUHU21523XXSP,2013-01-05 12:08:00,
2013-01-05 07:13:00,32.9,21.6,30.34,NW,315,0.0,0.0,63,0.00,,,0.00,WUHU21523XXSP,2013-01-05 12:13:00,
2013-01-05 07:23:00,33.1,21.8,30.35,NW,315,0.0,0.0,63,0.00,,,0.00,WUHU21523XXSP,2013-01-05 12:23:00,
2013-01-05 07:28:00,32.9,21.6,30.35,NNW,337,0.0,0.0,63,0.00,,,0.00,WUHU21523XXSP,2013-01-05 12:28:00,
2013-01-05 07:33:00,32.9,21.6,30.35,NNW,337,0.0,0.0,63,0.00,,,0.00,WUHU21523XXSP,2013-01-05 12:33:00,
2013-01-05 07:38:00,32.9,21.6,30.36,NNW,337,0.0,0.0,63,0.00,,,0.00,WUHU21523XXSP,2013-01-05 12:38:00,
2013-01-05 07:43:00,32.7,21.8,30.36,NW,315,0.0,0.0,64,0.00,,,0.00,WUHU21523XXSP,2013-01-05 12:43:00,
2013-01-05 07:48:00,32.9,22.0,30.36,WNW,292,0.0,0.0,64,0.00,,,0.00,WUHU21523XXSP,2013-01-05 12:48:00,
2013-01-05 07:53:00,32.7,21.8,30.36,WNW,292,0.0,0.0,64,0.00,,,0.00,WUHU21523XXSP,2013-01-05 12:53:00,
2013-01-05 08:03:00,32.7,21.8,30.36,NW,315,0.0,0.0,64,0.00,,,0.00,WUHU21523XXSP,2013-01-05 13:03:00,
2013-01-05 08:08:00,32.7,21.8,30.36,NW,315,0.0,0.0,64,0.00,,,0.00,WUHU21523XXSP,2013-01-05 13:08:00,
2013-01-05 08:13:00,32.7,21.8,30.36,WNW,292,0.0,0.0,64,0.00,,,0.00,WUHU21523XXSP,2013-01-05 13:13:00,
2013-01-05 08:18:00,32.9,22.0,30.37,WNW,292,0.0,0.0,64,0.00,,,0.00,WUHU21523XXSP,2013-01-05 13:18:00,
2013-01-05 08:23:00,33.1,22.2,30.37,WNW,292,0.0,0.0,64,0.00,,,0.00,WUHU21523XXSP,2013-01-05 13:23:00,
2013-01-05 08:28:00,33.1,22.2,30.38,NNW,337,3.4,3.4,64,0.00,,,0.00,WUHU21523XXSP,2013-01-05 13:28:00,
2013-01-05 08:33:00,33.3,22.0,30.38,NW,315,2.2,3.4,63,0.00,,,0.00,WUHU21523XXSP,2013-01-05 13:33:00,
2013-01-05 08:38:00,33.6,22.3,30.38,NW,315,0.9,3.4,63,0.00,,,0.00,WUHU21523XXSP,2013-01-05 13:38:00,
2013-01-05 08:48:00,33.6,22.3,30.38,NNW,337,3.0,3.6,63,0.00,,,0.00,WUHU21523XXSP,2013-01-05 13:48:00,
2013-01-05 08:53:00,34.0,22.6,30.39,NNW,337,1.0,3.6,63,0.00,,,0.00,WUHU21523XXSP,2013-01-05 13:53:00,
2013-01-05 08:58:00,34.2,22.8,30.38,North,357,4.5,5.4,63,0.00,,,0.00,WUHU21523XXSP,2013-01-05 13:58:00,
2013-01-05 09:03:00,34.3,22.6,30.38,NW,315,5.4,5.4,62,0.00,,,0.00,WUHU21523XXSP,2013-01-05 14:03:00,
2013-01-05 09:08:00,34.5,22.8,30.39,NW,315,7.4,7.4,62,0.00,,,0.00,WUHU21523XXSP,2013-01-05 14:08:00,
2013-01-05 09:13:00,34.7,22.6,30.38,NW,315,7.0,8.1,61,0.00,,,0.00,WUHU21523XXSP,2013-01-05 14:13:00,
2013-01-05 09:18:00,34.9,22.6,30.39,NNW,337,2.9,8.1,61,0.00,,,0.00,WUHU21523XXSP,2013-01-05 14:18:00,
2013-01-05 09:23:00,34.9,22.8,30.39,NW,315,3.4,8.1,61,0.00,,,0.00,WUHU21523XXSP,2013-01-05 14:23:00,
2013-01-05 09:28:00,35.2,23.2,30.39,NNW,335,5.6,6.7,61,0.00,,,0.00,WUHU21523XXSP,2013-01-05 14:28:00,
2013-01-05 09:33:00,35.2,23.2,30.39,WNW,293,3.6,6.9,61,0.00,,,0.00,WUHU21523XXSP,2013-01-05 14:33:00,
2013-01-05 09:38:00,35.4,23.4,30.40,NW,315,3.8,6.9,61,0.00,,,0.00,WUHU21523XXSP,2013-01-05 14:38:00,
2013-01-05 09:43:00,35.4,23.4,30.40,NW,315,5.4,6.5,61,0.00,,,0.00,WUHU21523XXSP,2013-01-05 14:43:00,
2013-01-05 09:48:00,35.8,23.4,30.40,NW,315,6.9,6.9,60,0.00,,,0.00,WUHU21523XXSP,2013-01-05 14:48:00,
2013-01-05 09:53:00,35.8,23.3,30.40,NW,315,4.6,7.2,60,0.00,,,0.00,WUHU21523XXSP,2013-01-05 14:53:00,
2013-01-05 09:58:00,36.1,23.2,30.39,NW,315,4.4,7.2,59,0.00,,,0.00,WUHU21523XXSP,2013-01-05 14:58:00,
2013-01-05 10:03:00,36.3,23.4,30.39,NW,315,4.2,4.5,59,0.00,,,0.00,WUHU21523XXSP,2013-01-05 15:03:00,
2013-01-05 10:08:00,36.7,23.3,30.39,NNW,337,4.0,4.3,58,0.00,,,0.00,WUHU21523XXSP,2013-01-05 15:08:00,
2013-01-05 10:13:00,37.0,23.2,30.39,WNW,297,1.6,4.0,57,0.00,,,0.00,WUHU21523XXSP,2013-01-05 15:13:00,
2013-01-05 10:18:00,37.2,22.9,30.39,WNW,299,8.6,12.1,56,0.00,,,0.00,WUHU21523XXSP,2013-01-05 15:18:00,
2013-01-05 10:23:00,37.6,23.2,30.39,NW,315,3.0,12.1,56,0.00,,,0.00,WUHU21523XXSP,2013-01-05 15:23:00,
2013-01-05 10:28:00,37.9,23.1,30.38,SW,225,1.1,4.5,55,0.00,,,0.00,WUHU21523XXSP,2013-01-05 15:28:00,
2013-01-05 10:33:00,38.1,23.3,30.39,NNW,337,0.7,4.5,55,0.00,,,0.00,WUHU21523XXSP,2013-01-05 15:33:00,
2013-01-05 10:38:00,38.1,22.9,30.39,NW,319,2.1,3.6,54,0.00,,,0.00,WUHU21523XXSP,2013-01-05 15:38:00,
2013-01-05 10:43:00,38.5,23.2,30.38,North,3,3.1,3.8,54,0.00,,,0.00,WUHU21523XXSP,2013-01-05 15:43:00,
2013-01-05 10:48:00,38.8,23.5,30.39,NNW,346,2.3,3.8,54,0.00,,,0.00,WUHU21523XXSP,2013-01-05 15:48:00,
2013-01-05 10:53:00,39.0,23.7,30.38,NNE,22,1.8,2.9,54,0.00,,,0.00,WUHU21523XXSP,2013-01-05 15:53:00,
2013-01-05 10:58:00,39.4,23.1,30.38,WSW,247,2.0,2.7,52,0.00,,,0.00,WUHU21523XXSP,2013-01-05 15:58:00,
2013-01-05 11:03:00,39.6,23.3,30.38,WSW,258,0.7,2.7,52,0.00,,,0.00,WUHU21523XXSP,2013-01-05 16:03:00,
2013-01-05 11:08:00,39.9,23.2,30.38,NNW,337,2.9,2.9,51,0.00,,,0.00,WUHU21523XXSP,2013-01-05 16:08:00,
2013-01-05 11:13:00,39.9,23.2,30.38,NNW,337,1.7,2.9,51,0.00,,,0.00,WUHU21523XXSP,2013-01-05 16:13:00,
2013-01-05 11:18:00,40.3,23.5,30.38,NNW,337,0.0,1.8,51,0.00,,,0.00,WUHU21523XXSP,2013-01-05 16:18:00,
2013-01-05 11:23:00,40.5,23.2,30.38,NW,315,2.9,3.6,50,0.00,,,0.00,WUHU21523XXSP,2013-01-05 16:23:00,
2013-01-05 11:28:00,40.8,23.6,30.38,NE,45,3.4,3.6,50,0.00,,,0.00,WUHU21523XXSP,2013-01-05 16:28:00,
2013-01-05 11:33:00,40.8,23.0,30.37,NNW,340,1.2,3.4,49,0.00,,,0.00,WUHU21523XXSP,2013-01-05 16:33:00,
2013-01-05 11:38:00,41.2,23.4,30.37,NNE,22,7.5,14.3,49,0.00,,,0.00,WUHU21523XXSP,2013-01-05 16:38:00,
2013-01-05 11:43:00,41.5,23.7,30.36,North,9,1.5,14.3,49,0.00,,,0.00,WUHU21523XXSP,2013-01-05 16:43:00,
2013-01-05 11:48:00,41.7,23.4,30.36,NNW,337,1.1,2.2,48,0.00,,,0.00,WUHU21523XXSP,2013-01-05 16:48:00,
2013-01-05 11:53:00,41.9,23.6,30.35,NW,315,2.9,2.9,48,0.00,,,0.00,WUHU21523XXSP,2013-01-05 16:53:00,
2013-01-05 11:58:00,42.1,23.7,30.35,NNW,337,6.0,6.0,48,0.00,,,0.00,WUHU21523XXSP,2013-01-05 16:58:00,
2013-01-05 12:03:00,42.4,24.1,30.34,WNW,292,0.0,6.0,48,0.00,,,0.00,WUHU21523XXSP,2013-01-05 17:03:00,
2013-01-05 12:08:00,42.6,23.7,30.34,NW,304,1.8,3.1,47,0.00,,,0.00,WUHU21523XXSP,2013-01-05 17:08:00,
2013-01-05 12:13:00,42.6,24.3,30.34,SW,225,0.0,3.1,48,0.00,,,0.00,WUHU21523XXSP,2013-01-05 17:13:00,
2013-01-05 12:18:00,43.0,24.1,30.34,NNE,22,0.0,2.0,47,0.00,,,0.00,WUHU21523XXSP,2013-01-05 17:18:00,
2013-01-05 12:23:00,43.2,24.2,30.33,NW,315,0.0,4.3,47,0.00,,,0.00,WUHU21523XXSP,2013-01-05 17:23:00,
2013-01-05 12:28:00,43.3,24.4,30.33,NW,315,1.3,4.3,47,0.00,,,0.00,WUHU21523XXSP,2013-01-05 17:28:00,
2013-01-05 12:33:00,43.5,24.5,30.33,WSW,251,2.2,3.8,47,0.00,,,0.00,WUHU21523XXSP,2013-01-05 17:33:00,
2013-01-05 12:38:00,43.9,24.9,30.33,South,180,0.0,3.8,47,0.00,,,0.00,WUHU21523XXSP,2013-01-05 17:38:00,
2013-01-05 12:43:00,44.2,25.0,30.33,NNW,337,2.2,2.2,46,0.00,,,0.00,WUHU21523XXSP,2013-01-05 17:43:00,
2013-01-05 12:48:00,44.4,24.8,30.32,SSW,202,0.0,2.2,46,0.00,,,0.00,WUHU21523XXSP,2013-01-05 17:48:00,
2013-01-05 12:53:00,44.8,25.1,30.31,WSW,247,0.0,0.0,46,0.00,,,0.00,WUHU21523XXSP,2013-01-05 17:53:00,
2013-01-05 12:58:00,45.0,24.8,30.31,North,0,2.3,2.9,45,0.00,,,0.00,WUHU21523XXSP,2013-01-05 17:58:00,
2013-01-05 13:03:00,45.0,24.8,30.31,NNE,22,1.3,2.9,45,0.00,,,0.00,WUHU21523XXSP,2013-01-05 18:03:00,
2013-01-05 13:08:00,45.1,24.9,30.30,NNE,22,0.0,1.3,45,0.00,,,0.00,WUHU21523XXSP,2013-01-05 18:08:00,
2013-01-05 13:13:00,45.1,24.9,30.30,NNE,22,0.0,0.0,45,0.00,,,0.00,WUHU21523XXSP,2013-01-05 18:13:00,
2013-01-05 13:18:00,45.1,25.5,30.30,North,0,0.0,0.0,46,0.00,,,0.00,WUHU21523XXSP,2013-01-05 18:18:00,
2013-01-05 13:23:00,45.3,25.6,30.30,North,0,0.0,0.0,46,0.00,,,0.00,WUHU21523XXSP,2013-01-05 18:23:00,
2013-01-05 13:28:00,45.7,26.0,30.30,NNW,337,0.0,0.0,46,0.00,,,0.00,WUHU21523XXSP,2013-01-05 18:28:00,
2013-01-05 13:33:00,46.0,26.3,30.29,NNW,337,0.0,0.0,46,0.00,,,0.00,WUHU21523XXSP,2013-01-05 18:33:00,
2013-01-05 13:38:00,46.0,25.2,30.30,SW,225,1.6,1.6,44,0.00,,,0.00,WUHU21523XXSP,2013-01-05 18:38:00,
2013-01-05 13:43:00,46.2,25.9,30.29,South,180,2.7,2.7,45,0.00,,,0.00,WUHU21523XXSP,2013-01-05 18:43:00,
2013-01-05 13:48:00,46.2,26.4,30.29,South,180,0.0,2.7,46,0.00,,,0.00,WUHU21523XXSP,2013-01-05 18:48:00,
2013-01-05 13:53:00,46.6,26.2,30.28,South,180,0.0,0.0,45,0.00,,,0.00,WUHU21523XXSP,2013-01-05 18:53:00,
2013-01-05 13:58:00,46.8,26.9,30.28,South,180,0.0,0.0,46,0.00,,,0.00,WUHU21523XXSP,2013-01-05 18:58:00,
2013-01-05 14:03:00,46.8,26.4,30.28,East,93,0.7,1.6,45,0.00,,,0.00,WUHU21523XXSP,2013-01-05 19:03:00,
2013-01-05 14:08:00,46.8,25.8,30.28,NE,45,0.0,1.6,44,0.00,,,0.00,WUHU21523XXSP,2013-01-05 19:08:00,
2013-01-05 14:13:00,46.8,26.4,30.27,NE,45,0.0,1.1,45,0.00,,,0.00,WUHU21523XXSP,2013-01-05 19:13:00,
2013-01-05 14:18:00,46.8,26.4,30.27,SSW,202,0.0,0.0,45,0.00,,,0.00,WUHU21523XXSP,2013-01-05 19:18:00,
2013-01-05 14:23:00,46.9,26.0,30.28,NE,45,0.0,2.0,44,0.00,,,0.00,WUHU21523XXSP,2013-01-05 19:23:00,
2013-01-05 14:28:00,46.9,26.0,30.27,NE,45,0.0,2.0,44,0.00,,,0.00,WUHU21523XXSP,2013-01-05 19:28:00,
2013-01-05 14:33:00,46.9,26.5,30.27,NE,45,0.0,0.0,45,0.00,,,0.00,WUHU21523XXSP,2013-01-05 19:33:00,
2013-01-05 14:38:00,47.1,26.2,30.27,NE,45,0.0,0.0,44,0.00,,,0.00,WUHU21523XXSP,2013-01-05 19:38:00,
2013-01-05 14:43:00,47.1,26.7,30.28,NE,45,0.0,0.0,45,0.00,,,0.00,WUHU21523XXSP,2013-01-05 19:43:00,
2013-01-05 14:48:00,47.3,26.9,30.27,NE,45,0.0,0.0,45,0.00,,,0.00,WUHU21523XXSP,2013-01-05 19:48:00,
2013-01-05 14:53:00,47.7,26.7,30.27,NE,45,0.0,0.0,44,0.00,,,0.00,WUHU21523XXSP,2013-01-05 19:53:00,
2013-01-05 14:58:00,47.7,26.7,30.26,NE,45,0.0,0.0,44,0.00,,,0.00,WUHU21523XXSP,2013-01-05 19:58:00,
2013-01-05 15:03:00,47.7,26.7,30.27,NE,45,0.0,0.0,44,0.00,,,0.00,WUHU21523XXSP,2013-01-05 20:03:00,
2013-01-05 15:08:00,47.7,26.1,30.27,NE,45,0.0,0.0,43,0.00,,,0.00,WUHU21523XXSP,2013-01-05 20:08:00,
2013-01-05 15:13:00,47.5,25.4,30.27,NE,45,1.8,1.8,42,0.00,,,0.00,WUHU21523XXSP,2013-01-05 20:13:00,
2013-01-05 15:18:00,47.5,26.0,30.27,NE,45,11.4,11.4,43,0.00,,,0.00,WUHU21523XXSP,2013-01-05 20:18:00,
2013-01-05 15:23:00,47.5,26.0,30.27,SE,135,0.0,11.4,43,0.00,,,0.00,WUHU21523XXSP,2013-01-05 20:23:00,
2013-01-05 15:28:00,47.7,26.1,30.28,ENE,67,0.0,0.0,43,0.00,,,0.00,WUHU21523XXSP,2013-01-05 20:28:00,
2013-01-05 15:33:00,47.8,26.3,30.28,South,180,0.0,0.0,43,0.00,,,0.00,WUHU21523XXSP,2013-01-05 20:33:00,
2013-01-05 15:38:00,47.8,26.8,30.27,South,180,0.0,0.0,43,0.00,,,0.00,WUHU21523XXSP,2013-01-05 20:38:00,
2013-01-05 15:43:00,47.8,26.3,30.27,ESE,112,0.0,0.0,43,0.00,,,0.00,WUHU21523XXSP,2013-01-05 20:43:00,
2013-01-05 15:48:00,47.7,25.6,30.27,NE,45,0.0,0.0,42,0.00,,,0.00,WUHU21523XXSP,2013-01-05 20:48:00,
2013-01-05 15:53:00,47.5,25.4,30.27,NE,45,0.0,0.0,42,0.00,,,0.00,WUHU21523XXSP,2013-01-05 20:53:00,
2013-01-05 15:58:00,47.5,26.0,30.27,NE,45,0.0,0.0,43,0.00,,,0.00,WUHU21523XXSP,2013-01-05 20:58:00,
2013-01-05 16:03:00,47.3,25.8,30.26,NE,45,0.0,0.0,43,0.00,,,0.00,WUHU21523XXSP,2013-01-05 21:03:00,
2013-01-05 16:08:00,47.3,25.8,30.27,NE,45,0.0,0.0,43,0.00,,,0.00,WUHU21523XXSP,2013-01-05 21:08:00,
2013-01-05 16:13:00,47.1,25.6,30.27,NE,45,0.0,0.0,43,0.00,,,0.00,WUHU21523XXSP,2013-01-05 21:13:00,
2013-01-05 16:18:00,47.1,26.2,30.26,NE,45,0.0,0.0,44,0.00,,,0.00,WUHU21523XXSP,2013-01-05 21:18:00,
2013-01-05 16:23:00,46.9,26.0,30.26,NE,45,0.0,0.0,44,0.00,,,0.00,WUHU21523XXSP,2013-01-05 21:23:00,
2013-01-05 16:28:00,46.9,26.0,30.26,NE,45,0.0,0.0,44,0.00,,,0.00,WUHU21523XXSP,2013-01-05 21:28:00,
2013-01-05 16:33:00,46.8,25.8,30.26,NE,45,0.0,0.0,44,0.00,,,0.00,WUHU21523XXSP,2013-01-05 21:33:00,
2013-01-05 16:38:00,46.6,25.7,30.26,NE,45,0.0,0.0,44,0.00,,,0.00,WUHU21523XXSP,2013-01-05 21:38:00,
2013-01-05 16:43:00,46.6,25.7,30.26,NE,45,0.0,0.0,44,0.00,,,0.00,WUHU21523XXSP,2013-01-05 21:43:00,
2013-01-05 16:48:00,46.4,26.1,30.26,NE,45,0.0,0.0,45,0.00,,,0.00,WUHU21523XXSP,2013-01-05 21:48:00,
2013-01-05 16:53:00,46.2,25.9,30.25,NE,45,0.0,0.0,45,0.00,,,0.00,WUHU21523XXSP,2013-01-05 21:53:00,
2013-01-05 16:58:00,46.0,25.7,30.24,NE,45,0.0,0.0,45,0.00,,,0.00,WUHU21523XXSP,2013-01-05 21:58:00,
2013-01-05 17:03:00,46.0,25.7,30.24,NE,45,0.0,0.0,45,0.00,,,0.00,WUHU21523XXSP,2013-01-05 22:03:00,
2013-01-05 17:08:00,45.7,26.0,30.25,NE,45,0.0,0.0,46,0.00,,,0.00,WUHU21523XXSP,2013-01-05 22:08:00,
2013-01-05 17:13:00,45.5,25.8,30.25,NE,45,0.0,0.0,46,0.00,,,0.00,WUHU21523XXSP,2013-01-05 22:13:00,
2013-01-05 17:18:00,45.3,25.6,30.23,NE,45,0.0,0.0,46,0.00,,,0.00,WUHU21523XXSP,2013-01-05 22:18:00,
2013-01-05 17:23:00,45.1,25.5,30.24,NE,45,0.0,0.0,46,0.00,,,0.00,WUHU21523XXSP,2013-01-05 22:23:00,
2013-01-05 17:28:00,45.0,25.3,30.25,ENE,67,0.0,0.0,46,0.00,,,0.00,WUHU21523XXSP,2013-01-05 22:28:00,
2013-01-05 17:33:00,44.6,25.0,30.25,ENE,67,0.0,0.0,46,0.00,,,0.00,WUHU21523XXSP,2013-01-05 22:33:00,
2013-01-05 17:38:00,44.4,25.4,30.25,ENE,67,0.0,0.0,47,0.00,,,0.00,WUHU21523XXSP,2013-01-05 22:38:00,
2013-01-05 17:43:00,44.2,25.2,30.26,ENE,67,0.0,0.0,47,0.00,,,0.00,WUHU21523XXSP,2013-01-05 22:43:00,
2013-01-05 17:48:00,43.9,24.9,30.26,ENE,67,0.0,0.0,47,0.00,,,0.00,WUHU21523XXSP,2013-01-05 22:48:00,
2013-01-05 17:53:00,43.7,25.3,30.25,ENE,67,0.0,0.0,48,0.00,,,0.00,WUHU21523XXSP,2013-01-05 22:53:00,
2013-01-05 17:58:00,43.5,25.1,30.25,ENE,67,0.0,0.0,48,0.00,,,0.00,WUHU21523XXSP,2013-01-05 22:58:00,
2013-01-05 18:03:00,43.5,25.1,30.25,ENE,67,0.0,0.0,48,0.00,,,0.00,WUHU21523XXSP,2013-01-05 23:03:00,
2013-01-05 18:08:00,43.3,25.6,30.25,ENE,67,0.0,0.0,49,0.00,,,0.00,WUHU21523XXSP,2013-01-05 23:08:00,
2013-01-05 18:13:00,43.3,25.5,30.26,ENE,67,0.0,0.0,49,0.00,,,0.00,WUHU21523XXSP,2013-01-05 23:13:00,
2013-01-05 18:18:00,43.2,25.3,30.26,ENE,67,0.0,0.0,49,0.00,,,0.00,WUHU21523XXSP,2013-01-05 23:18:00,
2013-01-05 18:23:00,43.0,25.7,30.26,ENE,67,0.0,0.0,50,0.00,,,0.00,WUHU21523XXSP,2013-01-05 23:23:00,
2013-01-05 18:28:00,43.0,25.7,30.25,ENE,67,0.0,0.0,50,0.00,,,0.00,WUHU21523XXSP,2013-01-05 23:28:00,
2013-01-05 18:33:00,43.0,25.7,30.26,ENE,67,0.0,0.0,50,0.00,,,0.00,WUHU21523XXSP,2013-01-05 23:33:00,
2013-01-05 18:38:00,43.0,25.7,30.26,ENE,67,0.0,0.0,50,0.00,,,0.00,WUHU21523XXSP,2013-01-05 23:38:00,
2013-01-05 18:43:00,43.0,25.7,30.25,ENE,67,0.0,0.0,50,0.00,,,0.00,WUHU21523XXSP,2013-01-05 23:43:00,
2013-01-05 18:48:00,43.0,26.1,30.26,ENE,67,0.0,0.0,51,0.00,,,0.00,WUHU21523XXSP,2013-01-05 23:48:00,
2013-01-05 18:53:00,43.0,26.1,30.26,ENE,67,0.0,0.0,51,0.00,,,0.00,WUHU21523XXSP,2013-01-05 23:53:00,
2013-01-05 18:58:00,43.0,26.1,30.26,ENE,67,0.0,0.0,51,0.00,,,0.00,WUHU21523XXSP,2013-01-05 23:58:00,
2013-01-05 19:03:00,42.8,26.0,30.26,ENE,67,0.0,0.0,51,0.00,,,0.00,WUHU21523XXSP,2013-01-06 00:03:00,
2013-01-05 19:08:00,42.8,26.0,30.25,ENE,67,0.0,0.0,51,0.00,,,0.00,WUHU21523XXSP,2013-01-06 00:08:00,
2013-01-05 19:13:00,42.8,26.0,30.25,ENE,67,0.0,0.0,51,0.00,,,0.00,WUHU21523XXSP,2013-01-06 00:13:00,
2013-01-05 19:18:00,42.6,25.8,30.26,ENE,67,0.0,0.0,51,0.00,,,0.00,WUHU21523XXSP,2013-01-06 00:18:00,
2013-01-05 19:23:00,42.8,26.0,30.25,NE,45,1.6,1.6,51,0.00,,,0.00,WUHU21523XXSP,2013-01-06 00:23:00,
2013-01-05 19:28:00,42.8,26.0,30.25,NE,45,0.0,1.6,51,0.00,,,0.00,WUHU21523XXSP,2013-01-06 00:28:00,
2013-01-05 19:33:00,43.0,26.1,30.25,NE,45,0.0,0.0,51,0.00,,,0.00,WUHU21523XXSP,2013-01-06 00:33:00,
2013-01-05 19:38:00,43.0,26.1,30.25,NE,45,0.0,0.0,51,0.00,,,0.00,WUHU21523XXSP,2013-01-06 00:38:00,
2013-01-05 19:43:00,43.0,26.1,30.25,NE,45,0.0,0.0,51,0.00,,,0.00,WUHU21523XXSP,2013-01-06 00:43:00,
2013-01-05 19:48:00,43.0,26.1,30.25,NE,45,0.0,0.0,51,0.00,,,0.00,WUHU21523XXSP,2013-01-06 00:48:00,
2013-01-05 19:53:00,43.0,26.1,30.24,NE,45,0.0,0.0,51,0.00,,,0.00,WUHU21523XXSP,2013-01-06 00:53:00,
2013-01-05 19:58:00,42.6,26.2,30.25,NE,45,0.0,0.0,52,0.00,,,0.00,WUHU21523XXSP,2013-01-06 00:58:00,
2013-01-05 20:03:00,42.6,26.6,30.25,NE,45,0.0,0.0,53,0.00,,,0.00,WUHU21523XXSP,2013-01-06 01:03:00,
2013-01-05 20:08:00,42.6,26.6,30.25,NE,45,0.0,0.0,53,0.00,,,0.00,WUHU21523XXSP,2013-01-06 01:08:00,
2013-01-05 20:13:00,42.6,26.6,30.24,NE,45,0.0,0.0,53,0.00,,,0.00,WUHU21523XXSP,2013-01-06 01:13:00,
2013-01-05 20:18:00,42.6,26.6,30.24,NE,45,0.0,0.0,53,0.00,,,0.00,WUHU21523XXSP,2013-01-06 01:18:00,
2013-01-05 20:23:00,42.4,26.9,30.24,NE,45,0.0,0.0,54,0.00,,,0.00,WUHU21523XXSP,2013-01-06 01:23:00,
2013-01-05 20:28:00,42.4,26.9,30.24,NE,45,0.0,0.0,54,0.00,,,0.00,WUHU21523XXSP,2013-01-06 01:28:00,
2013-01-05 20:33:00,42.4,26.9,30.24,NE,45,0.0,0.0,54,0.00,,,0.00,WUHU21523XXSP,2013-01-06 01:33:00,
2013-01-05 20:38:00,42.4,27.3,30.25,WNW,292,0.0,0.0,55,0.00,,,0.00,WUHU21523XXSP,2013-01-06 01:38:00,
2013-01-05 20:43:00,42.4,27.3,30.25,WNW,292,0.0,0.0,55,0.00,,,0.00,WUHU21523XXSP,2013-01-06 01:43:00,
2013-01-05 20:48:00,42.4,27.3,30.25,WNW,292,0.0,0.0,55,0.00,,,0.00,WUHU21523XXSP,2013-01-06 01:48:00,
2013-01-05 20:53:00,42.4,27.3,30.24,WNW,292,0.0,0.0,55,0.00,,,0.00,WUHU21523XXSP,2013-01-06 01:53:00,
2013-01-05 20:58:00,42.4,27.3,30.24,WNW,292,0.0,0.0,55,0.00,,,0.00,WUHU21523XXSP,2013-01-06 01:58:00,
2013-01-05 21:03:00,42.4,27.8,30.24,WNW,292,0.0,0.0,56,0.00,,,0.00,WUHU21523XXSP,2013-01-06 02:03:00,
2013-01-05 21:08:00,42.3,28.0,30.24,WNW,292,0.0,0.0,57,0.00,,,0.00,WUHU21523XXSP,2013-01-06 02:08:00,
2013-01-05 21:13:00,42.1,28.3,30.25,WNW,292,0.0,0.0,58,0.00,,,0.00,WUHU21523XXSP,2013-01-06 02:13:00,
2013-01-05 21:18:00,42.1,28.3,30.25,WNW,292,0.0,0.0,58,0.00,,,0.00,WUHU21523XXSP,2013-01-06 02:18:00,
2013-01-05 21:23:00,41.9,28.1,30.23,WNW,292,0.0,0.0,58,0.00,,,0.00,WUHU21523XXSP,2013-01-06 02:23:00,
2013-01-05 21:28:00,41.9,29.0,30.24,WNW,292,0.0,0.0,60,0.00,,,0.00,WUHU21523XXSP,2013-01-06 02:28:00,
2013-01-05 21:33:00,41.7,28.9,30.23,WNW,292,0.0,0.0,60,0.00,,,0.00,WUHU21523XXSP,2013-01-06 02:33:00,
2013-01-05 21:38:00,41.7,29.2,30.23,WNW,292,0.0,0.0,61,0.00,,,0.00,WUHU21523XXSP,2013-01-06 02:38:00,
2013-01-05 21:43:00,41.7,29.2,30.22,WSW,247,0.0,0.0,61,0.00,,,0.00,WUHU21523XXSP,2013-01-06 02:43:00,
2013-01-05 21:48:00,41.7,29.6,30.22,SW,225,0.0,0.0,62,0.00,,,0.00,WUHU21523XXSP,2013-01-06 02:48:00,
2013-01-05 21:53:00,41.7,30.0,30.23,SW,225,0.0,0.0,63,0.00,,,0.00,WUHU21523XXSP,2013-01-06 02:53:00,
2013-01-05 21:58:00,41.7,30.0,30.23,SW,225,0.0,0.0,63,0.00,,,0.00,WUHU21523XXSP,2013-01-06 02:58:00,
2013-01-05 22:03:00,41.7,29.6,30.23,SW,225,0.0,0.0,62,0.00,,,0.00,WUHU21523XXSP,2013-01-06 03:03:00,
2013-01-05 22:08:00,41.7,30.0,30.21,SW,225,0.0,0.0,63,0.00,,,0.00,WUHU21523XXSP,2013-01-06 03:08:00,
2013-01-05 22:13:00,41.7,30.0,30.22,SW,225,0.0,0.0,63,0.00,,,0.00,WUHU21523XXSP,2013-01-06 03:13:00,
2013-01-05 22:18:00,41.5,29.8,30.22,SW,225,0.0,0.0,63,0.00,,,0.00,WUHU21523XXSP,2013-01-06 03:18:00,
2013-01-05 22:23:00,41.5,30.2,30.22,SW,225,0.0,0.0,64,0.00,,,0.00,WUHU21523XXSP,2013-01-06 03:23:00,
2013-01-05 22:28:00,41.5,30.2,30.23,SW,225,0.0,0.0,64,0.00,,,0.00,WUHU21523XXSP,2013-01-06 03:28:00,
2013-01-05 22:33:00,41.5,30.2,30.23,SW,225,0.0,0.0,64,0.00,,,0.00,WUHU21523XXSP,2013-01-06 03:33:00,
2013-01-05 22:38:00,41.5,30.6,30.22,SW,225,0.0,0.0,65,0.00,,,0.00,WUHU21523XXSP,2013-01-06 03:38:00,
2013-01-05 22:43:00,41.5,30.6,30.22,SW,225,0.0,0.0,65,0.00,,,0.00,WUHU21523XXSP,2013-01-06 03:43:00,
2013-01-05 22:48:00,41.5,30.6,30.22,SW,225,0.0,0.0,65,0.00,,,0.00,WUHU21523XXSP,2013-01-06 03:48:00,
2013-01-05 22:53:00,41.5,30.6,30.22,SW,225,0.0,0.0,65,0.00,,,0.00,WUHU21523XXSP,2013-01-06 03:53:00,
2013-01-05 22:58:00,41.5,30.6,30.22,SW,225,0.0,0.0,65,0.00,,,0.00,WUHU21523XXSP,2013-01-06 03:58:00,
2013-01-05 23:03:00,41.5,30.6,30.22,SW,225,0.0,0.0,65,0.00,,,0.00,WUHU21523XXSP,2013-01-06 04:03:00,
2013-01-05 23:08:00,41.5,30.6,30.22,SW,225,0.0,0.0,65,0.00,,,0.00,WUHU21523XXSP,2013-01-06 04:08:00,
2013-01-05 23:13:00,41.5,30.6,30.22,SW,225,0.0,0.0,65,0.00,,,0.00,WUHU21523XXSP,2013-01-06 04:13:00,
2013-01-05 23:18:00,41.4,30.5,30.22,SW,225,0.0,0.0,65,0.00,,,0.00,WUHU21523XXSP,2013-01-06 04:18:00,
2013-01-05 23:23:00,41.4,30.5,30.22,SW,225,0.0,0.0,65,0.00,,,0.00,WUHU21523XXSP,2013-01-06 04:23:00,
2013-01-05 23:28:00,41.4,30.8,30.22,SW,225,0.0,0.0,66,0.00,,,0.00,WUHU21523XXSP,2013-01-06 04:28:00,
2013-01-05 23:33:00,41.2,31.0,30.22,SW,225,0.0,0.0,67,0.00,,,0.00,WUHU21523XXSP,2013-01-06 04:33:00,
2013-01-05 23:38:00,41.2,31.0,30.22,SW,225,0.0,0.0,67,0.00,,,0.00,WUHU21523XXSP,2013-01-06 04:38:00,
2013-01-05 23:43:00,41.2,31.0,30.21,SW,225,0.0,0.0,67,0.00,,,0.00,WUHU21523XXSP,2013-01-06 04:43:00,
2013-01-05 23:48:00,41.2,31.0,30.21,SW,225,0.0,0.0,67,0.00,,,0.00,WUHU21523XXSP,2013-01-06 04:48:00,
2013-01-05 23:53:00,41.2,31.4,30.21,SW,225,0.0,0.0,68,0.00,,,0.00,WUHU21523XXSP,2013-01-06 04:53:00,
2013-01-05 23:58:00,41.2,31.4,30.21,SW,225,0.0,0.0,68,0.00,,,0.00,WUHU21523XXSP,2013-01-06 04:58:00,